Overview Statistics Trail Chart Weather Telemetry Raw packets
 

This is the latest recevied weather packets stored in our database for station/object KBTL-WX. If no packets are shown the sender has not sent any weather packets the latest 10 day(s).

<< 18 19 20 21 22 23 24 >>
Time Temp. Humidity Pressure Rain* Wind** Luminosity Snow
1777527031 5.56° C 92% 980.9 hPa 0.25 mm - - -
1777526115 5° C 92% 980.9 hPa 0.25 mm - - -
1777525237 5° C 92% 980.9 hPa 0.25 mm - - -
1777524312 5.56° C 93% 980.8 hPa 0.51 mm - - -
1777523431 5.56° C 91% 981.1 hPa 0.51 mm - - -
1777522512 5.56° C 91% 981.2 hPa 0 mm - - -
1777521638 5.56° C 91% 981.2 hPa 0 mm - - -
1777520712 6.11° C 94% 980.7 hPa 0.25 mm - - -
1777519830 6.11° C 91% 980.3 hPa 0.25 mm - - -
1777518912 6.67° C 91% 980.4 hPa 0 mm - - -
1777518038 6.67° C 91% 980.4 hPa 0 mm - - -
1777517112 6.67° C 92% 980.6 hPa 0.25 mm - - -
1777516225 6.67° C 88% 981.4 hPa 0.25 mm - - -
1777515312 7.22° C 88% 981.4 hPa 0 mm - - -
1777514434 7.22° C 88% 981.4 hPa 0 mm - - -
1777513512 7.22° C 89% 980.7 hPa 0 mm - - -
1777512624 7.22° C 89% 980.7 hPa 0 mm - - -
1777511712 7.22° C 89% 980.7 hPa 0 mm - - -
1777510833 7.22° C 89% 980.7 hPa 0 mm - - -
1777509912 7.22° C 86% 980 hPa 0 mm - - -
1777509025 7.78° C 89% 980.6 hPa 0 mm - - -
1777508112 7.78° C 89% 980.6 hPa 0 mm - - -
1777507231 7.78° C 89% 980.6 hPa 0 mm - - -
1777506312 7.78° C 91% 979.7 hPa 0.25 mm - - -
1777505426 8.33° C 91% 979.9 hPa 1.52 mm - - -

* Rain latest hour (hover to see other rain measurements)
** Current wind speed in m/s (hover to see current wind gust speed)